Hauptseite
METAR-TAF:

METAR-TAF

Flughäfen :

Meppen, Deutschland

Fliegerhorst Meppen

Breite: 52-43-24N, Länge: 007-19-35E, Höhe: 21 m

Beobachtung

Neuester Wetterbericht von vor 30 Minuten, um 05:20 UTC
Wind 8 kt aus West
Temperatur 7°C
Luftfeuchtigkeit 93%
Luftdruck 1011 hPa
Sichtweite 10 km oder mehr
Aufgelockert bewölkt in der Höhe von 1100 ft
Durchbrochene Bewölkung in der Höhe von 1800 ft
Leichtregen

METAR: ETWM 260520Z 28008KT 9999 -RA SCT011 BKN018 07/06 Q1011 RERA WHT

Zeit: 07:50 (05:50 UTC)


TAF: fehlend

Wetterbeobachtungen und Prognosen von mehr als 4000 Flughäfen (METAR und TAF Bericht).

Die verfügbaren Stationen werden durch gelbe und rote Markierungen auf der Karte dargestellt.

Führen Sie die Maus auf sie, um den Namen der Station zu sehen.

Darauf klicken, um die Beobachtung von Wetterbeobachtungen und Prognosen zu sehen.

Um die Karte zu ändern : klicken Sie auf den grünen Tasten mit einem schwarzen Kreuz Zum Vergrößern, auf den grünen Button mit einem Gedankenstrich zu verkleinern, oder auf die grünen Pfeile für benachbarte Karten.


METAR-TAF: